Regional Weather Roundup
Issued by NWS Grand Forks, ND

Home | Current Version | Previous Version | Graphics & Text | Print | Product List | Glossary On
Versions: 1 2 3 4 5 6 7 8 9 10 11 12 13 14 15 16 17 18 19 20 21 22 23 24 25 26 27 28 29 30 31 32 33 34 35 36 37 38 39 40 41 42 43 44 45 46 47 48 49 50
008
ASUS43 KFGF 281910
RWRFGF
PRAIRIE TO PINES  WEATHER ROUNDUP
NATIONAL WEATHER SERVICE EASTERN NORTH DAKOTA/GRAND FORKS ND
200 PM CDT SUN AUG 28 2016

 **SATELLITE DATA USED TO AUGMENT SKY COVER AT AUTOMATED STATIONS**
 *****  WEATHER ACROSS EASTERN NORTH DAKOTA  *****

CITY           SKY/WX    TMP DP  RH WIND       PRES   REMARKS
GRAND FORKS    MOSUNNY   80  65  59 S17       29.96F
GRAND FRKS AFB SUNNY     78  65  64 SE17G24   29.96F
GRAND FRKS NWS   N/A     79 N/A N/A SE12        N/A
DEVILS LAKE    SUNNY     79  67  66 SE13      29.94S
FARGO          SUNNY     83  66  56 S12G26    29.96F
WAHPETON ARPT  CLEAR     84  64  51 SE18      29.98F
$$

 ***** WEATHER ACROSS CENTRAL AND WESTERN NORTH DAKOTA  *****

CITY           SKY/WX    TMP DP  RH WIND       PRES   REMARKS
BISMARCK       SUNNY     82  65  56 SE6       29.90F
MINOT          SUNNY     91  59  33 SE15      29.85F HX  90
JAMESTOWN      PTSUNNY   81  70  69 S14G23    29.92F
MINOT AFB      SUNNY     89  59  35 SE16      29.84F
GARRISON         N/A     85  64  49 S10       29.89S
WILLISTON      MOSUNNY   88  45  22 N13       29.90R
DICKINSON      SUNNY     93  31  11 W13G18    29.90F
HETTINGER      SUNNY     92  42  17 S7        29.95S
$$

 *****  OTHER AIRPORT OBSERVATIONS IN OUR AREA  *****

CITY           SKY/WX    TMP DP  RH WIND       PRES   REMARKS
WALHALLA       NOT AVBL
GRAFTON AIRPOR FAIR      79  66  65 S16G24    29.97F
VALLEY CITY AR MOCLDY    79  72  78 SE20      29.96F
CANDO          NOT AVBL
CAVALIER APRT  FAIR      81  64  57 S16G23    29.95S
GWINNER        FAIR      84  72  65 S18       29.95F
ROLLA            N/A     81  64  57 S17       29.94F
 ***** THE ABOVE OBSERVATIONS ARE NON NWS ARE NOT QUALITY
       CONTROLLED AND MAY MIS-REPORT RAIN FOR SNOW...
$$

  *****  WEATHER ACROSS NORTHERN MINNESOTA  *****

CITY           SKY/WX    TMP DP  RH WIND       PRES   REMARKS
FLAG ISLAND    CLOUDY    64  63  94 SE3       30.07S
WARROAD        MOSUNNY   72  66  83 SE10      30.07R
ROSEAU         SUNNY     75  66  73 SE13      30.04S
HALLOCK        SUNNY     82  61  47 SE20G26   29.96F
THF RVR FALLS  SUNNY     78  64  61 SE14      30.02F
BAUDETTE       CLOUDY    69  64  84 SE10      30.08F
WASKISH        MOSUNNY   73  66  78 SE7       30.09F
CROOKSTON      SUNNY     79  66  65 S15       29.99F
STEPHEN NDAWN    N/A     82  64  54 S12         N/A
GREENBUSH NDAW   N/A     82  61  47 SE16        N/A
$$
  *****  WEATHER ACROSS CENTRAL AND WEST MINNESOTA  *****

CITY           SKY/WX    TMP DP  RH WIND       PRES   REMARKS
FOSSTON        CLOUDY    73  66  78 E6        30.04F
BEMIDJI        MOSUNNY   73  64  73 E8        30.08F
PARK RAPIDS    SUNNY     80  63  55 SE15      30.07F
ELBOW LAKE     FAIR      83  70  65 S18G26    30.03F
WADENA         SUNNY     79  64  61 SE15      30.07S
DETROIT LAKES  SUNNY     79  64  61 SE15      30.04F
MOORHEAD       SUNNY     82  64  54 S18G24    29.98F
FERGUS FALLS   SUNNY     81  66  61 S18G24    30.02F
MORRIS MN      SUNNY     86  70  58 S18       30.02F HX  90
STAPLES        SUNNY     77  63  61 SE8G17    30.09S
$$
  *****  WEATHER ELSEWHERE ACROSS MINNESOTA  *****

CITY           SKY/WX    TMP DP  RH WIND       PRES   REMARKS
DULUTH         PTSUNNY   69  63  81 S10       30.18S
INTRNTL FALLS  PTSUNNY   71  62  73 SE9       30.12F
ELY            PTSUNNY   66  61  82 CALM      30.17F
CLOQUET        MOSUNNY   72  63  73 S6        30.17S
WHEATON        SUNNY     82  73  74 S15G21    30.00F
BRAINERD       PTSUNNY   77  65  66 SE10      30.11F
HIBBING        MOSUNNY   69  62  78 VRB3      30.16S
ALEXANDRIA     MOSUNNY   81  68  64 SE13      30.08F
SAINT CLOUD    CLOUDY    74  70  87 SE9       30.11F
MINNEAPOLIS    PTSUNNY   83  67  58 S12       30.12F
$$

  *****  WEATHER ACROSS SOUTH DAKOTA  *****

CITY           SKY/WX    TMP DP  RH WIND       PRES   REMARKS
SIOUX FALLS    MOSUNNY   86  72  62 S16G25    30.05F HX  92
BROOKINGS      SUNNY     85  73  67 S21       30.04F HX  91
WATERTOWN      SUNNY     85  72  65 S18G26    30.01F HX  91
HURON          SUNNY     88  69  53 S15G26    29.95F HX  92
SISSETON         N/A     83  71  67 S20G25    29.96F
ABERDEEN       SUNNY     88  70  55 S17G24    29.93F HX  93
MITCHELL       SUNNY     88  71  57 SE20      29.99F HX  94
PIERRE         SUNNY     92  60  34 S14       29.89F HX  91
MOBRIDGE       SUNNY     88  63  43 SE15      29.89F
RAPID CITY     SUNNY     88  50  27 E8        29.99F
$$

  *****  SOME WEATHER IN NEARBY STATES *****

CITY           SKY/WX    TMP DP  RH WIND       PRES   REMARKS
GLASGOW MT     SUNNY     83  50  31 W9G20     29.94R
GREAT FALLS MT MOSUNNY   76  42  29 NE14      30.03S
CHEYENNE WY    SUNNY     84  32  15 VRB6      30.21F
SCOTTSBLUFF NE SUNNY     87  42  20 MISG      30.08F
OMAHA NE       PTSUNNY   88  72  58 SE14      30.08F HX  94
DES MOINES IA  PTSUNNY   88  74  63 S8        30.11F HX  96
DAVENPORT IA   SUNNY     87  73  62 CALM      30.15F HX  94
CHICAGO IL     MOSUNNY   82  69  64 E7        30.18F
EAU CLAIRE WI  CLOUDY    78  67  68 S8        30.17S
LA CROSSE WI   PTSUNNY   79  69  71 VRB5      30.17F
$$

  *****  SOME NATIONAL WEATHER *****

CITY           SKY/WX    TMP DP  RH WIND       PRES   REMARKS
LA GUARDIA NY  MOSUNNY   87  57  35 S8        30.21F
RALEIGH NC     MOSUNNY   89  65  44 NE12G17   30.17F HX  91
ATLANTA GA     PTSUNNY   89  70  53 E12G21    30.14F HX  94
NEW ORLEANS LA CLOUDY    86  74  67 E6        30.00S HX  94
OKLAHOMA CITY  MOSUNNY   90  66  45 SE7       30.08F HX  92
ALBUQUERQUE NM PTSUNNY   77  44  30 VRB3      30.24F
SALT LAKE CITY MOSUNNY   85  39  19 SE7       30.16F
LOS ANGELES CA MOSUNNY   73  61  65 W13       30.02S
BOISE ID       SUNNY     82  42  24 NW9       30.11F
SEATTLE WA     CLOUDY    64  50  60 NW8       30.09S
$$

*** WEATHER ACROSS MANITOBA...SASKATCHEWAN AND ONTARIO ***
                ***ONTARIO***

CITY           SKY/WX    TMP DP  RH WIND       PRES   REMARKS
GERALDTON      MOSUNNY   70  54  56 NW2       30.15S
THUNDER BAY    MOSUNNY   73  59  60 S7        30.16S
SIOUX LOOKOUT  MOSUNNY   66  57  72 SE8       30.14F
TORONTO        MOSUNNY   86  66  51 W15G22    30.13F
BIG TROUT LK   SUNNY     75  57  53 S5        30.06F
PICKLE LAKE    PTSUNNY   68  55  64 SW5       30.13R
DRYDEN         MOSUNNY   70  59  68 S10       30.12F
KENORA         PTSUNNY   66  61  82 SE10      30.10S
$$
                *** MANITOBA***

CITY           SKY/WX    TMP DP  RH WIND       PRES   REMARKS
BRANDON        PTSUNNY   84  63  48 S14G24    29.86F
DAUPHIN        MOSUNNY   77  64  65 SW6       29.83R
ISLAND LAKE    PTSUNNY   75  59  57 S14G21    29.99F
PILOT MOUND    NOT AVBL
THE PAS        MOSUNNY   70  59  68 S17G26    29.74S
THOMPSON       CLOUDY    73  54  49 S10G20    29.87F
WINNIPEG       MOSUNNY   82  64  54 S20G29    29.94F
LYNN LAKE        N/A     63  57  82 MISG      29.77S
CHURCHILL      MOSUNNY   68  57  68 E15       29.99S
GILLAM         PTSUNNY   75  55  50 S9        29.94F
$$
                ***SASKATCHEWAN***

CITY           SKY/WX    TMP DP  RH WIND       PRES   REMARKS
ESTEVAN        PTSUNNY   81  52  36 N10       29.90R
KINDERSLEY     CLOUDY    54  43  66 NW15G22   30.02R
LLOYDMINSTER   CLOUDY    50  43  76 NW14G28   29.97R
PRINCE ALBERT  PTSUNNY   64  54  68 W12G18    29.83R
REGINA         PTSUNNY   75  52  43 NW16G23   29.92R
YORKTON        CLOUDY    66  57  72 SW6       29.88S
N. BATTLEFORD  NOT AVBL
LA RONGE       LGT RAIN  61  57  88 W13G22    29.70R
SASKATOON      PTSUNNY   63  50  63 W17G28    29.93R
SWIFT CURRENT  MOSUNNY   64  50  59 NW22G28   30.00R
$$
NOTE: THESE ARE AUTOMATED STATIONS WITH LIMITED QUALITY CONTROL
      "FAIR" INDICATES FEW OR NO CLOUDS BELOW 12,000 FEET WITH NO
      SIGNIFICANT WEATHER AND/OR OBSTRUCTIONS TO VISIBILITY.
      SKY/WX - SKY CONDITION AND SIGNIFICANT WEATHER.
      TMP - AIR TEMPERATURE.    DP   - DEWPOINT TEMPERATURE.
      RH  - RELATIVE HUMIDITY.  PRES - PRESSURE.
      HX  - HEAT INDEX.         WCI  - WIND CHILL INDEX.
$




USA.gov is the U.S. government's official web portal to all federal, state and local government web resources and services.